Location: PSU-Greenbush Astrophysical Observatory
(37.5140°N, 94.9880°W)
Time: 13:58:04
(UTC-06:00)

Transit 2A - Pass Details

Date: 28 January 2020
Orbit: 600 x 959 km, 66.7° (Epoch: 19 February)

Event Time Altitude Azimuth Distance (km) Brightness Sun altitude
Rises 03:50:55 0° 341° (NNW) 3,009 - -42.8°
Reaches altitude 10° 03:53:19 10° 350° (N) 2,142 - -42.4°
Maximum altitude 03:57:47 35° 57° (ENE) 1,177 - -41.5°
Exits shadow 04:01:50 14° 118° (ESE) 2,070 8.7 -40.7°
Drops below altitude 10° 04:02:38 10° 122° (ESE) 2,344 8.9 -40.5°
Sets 04:05:22 0° 131° (SE) 3,335 9.8 -40.0°
